Flag for U.S.A. Weather past 2 weeks in Everett, Washington, U.S.A.

Now
56 °F

More clouds than sun.


Feels Like: 56 °F
Forecast: 54 / 73 °F
Wind: No wind

Location: Snohomish County Airport

Current Time: May 27, 2015 at 9:57:27 AM

Latest Report: May 27, 2015 at 8:53 AM


Visibility: 10 mi

Pressure: 30.08 "Hg

Humidity: 87%

Dew point: 52 °F

Location of EverettLocation

Historic Weather in Everett — Graph

°F

Everett temperature yesterday

Maximum temperature yesterday: 66 °F (at 5:53 PM)
Minimum temperature yesterday: 53 °F (at 3:53 AM)
Average temperature yesterday: 59 °F

Past Weeks' High & Low Weather Summary

 TemperatureHumidityPressure
High72 °F (May 21, 2:53 PM)100% (May 20, 3:53 AM)30.19 "Hg (May 20, 3:53 AM)
Low49 °F (May 14, 2:53 AM)48% (May 21, 4:53 PM)29.82 "Hg (May 12, 11:53 AM)
Average56 °F80%29.99 "Hg
* Reported May 12 8:53 AM — May 27 8:53 AM, Everett, Weather by CustomWeather, © 2015

Note: Actual official high and low records may vary slightly from our data, if they occured in-between our weather recording intervals... More about our weather records

Advertising

Everett weather history for previous 24 hours

 ConditionsComfort  
Time TempWeatherWind HumidityBarometerVisibility
8:53 AM
Wed, May 27
56 °FMore clouds than sun.No wind87%30.08 "Hg10 mi
7:53 AM54 °FMore clouds than sun.3 mph93%30.08 "Hg7 mi
6:59 AM54 °FMore clouds than sun.3 mph93%30.07 "Hg10 mi
5:53 AM54 °FOvercast.3 mph93%30.06 "Hg7 mi
4:53 AM54 °FMostly cloudy.No wind90%30.05 "Hg10 mi
3:53 AM56 °FPassing clouds.No wind81%30.05 "Hg10 mi
2:53 AM55 °FClear.3 mph87%30.05 "Hg10 mi
1:53 AM55 °FPassing clouds.3 mph90%30.05 "Hg10 mi
12:53 AM54 °FClear.5 mph90%30.05 "Hg10 mi
11:53 PM
Tue, May 26
54 °FPassing clouds.6 mph86%30.04 "Hg10 mi
10:53 PM57 °FPassing clouds.6 mph74%30.04 "Hg10 mi
9:53 PM61 °FPassing clouds.No wind67%30.03 "Hg10 mi
8:53 PM62 °FMostly cloudy.6 mph67%30.02 "Hg10 mi
7:53 PM63 °FOvercast.6 mph63%30.02 "Hg10 mi
6:53 PM64 °FOvercast.No wind63%30.02 "Hg10 mi
5:53 PM66 °FPartly sunny.3 mph56%30.02 "Hg10 mi
4:53 PM65 °FOvercast.5 mph61%30.03 "Hg10 mi
3:53 PM65 °FOvercast.9 mph59%30.04 "Hg10 mi
2:53 PM63 °FPartly sunny.6 mph68%30.04 "Hg10 mi
1:53 PM65 °FSunny.7 mph61%30.05 "Hg10 mi
12:53 PM62 °FMore clouds than sun.7 mph67%30.06 "Hg10 mi
11:53 AM60 °FMore clouds than sun.3 mph69%30.07 "Hg10 mi
10:59 AM57 °FMostly cloudy.6 mph81%30.06 "Hg10 mi
9:53 AM57 °FOvercast.6 mph81%30.06 "Hg10 mi
Weather by CustomWeather, © 2015

See weather overviewHow to use our weather pages